Regional Weather Roundup
Issued by NWS

Home | Current Version | Previous Version | Text Only | Print | Product List | Glossary On
Versions: 1 2 3 4 5 6 7 8 9 10 11 12 13 14 15 16 17 18 19 20 21 22 23 24 25 26 27 28 29 30 31 32 33 34 35 36 37 38 39 40 41 42 43 44 45 46 47 48 49 50
809
ASUS44 KJAN 162003
RWRMS

MISSISSIPPI HOURLY WEATHER ROUNDUP
NATIONAL WEATHER SERVICE JACKSON MS
300 PM CDT WED APR 16 2014

NOTE: "FAIR: INDICATES FEW OR NO CLOUDS BELOW 12,000 FEET WITH NO
SIGNIFICANT WEATHER AND/OR OBSTRUCTIONS TO VISIBILITY.

MSZ001>002-007>008-010>013-018>021-025>028-034>036-162100-
NORTHWEST MISSISSIPPI

CITY           SKY/WX    TMP DP  RH WIND       PRES   REMARKS
CLARKSDALE       N/A     57  32  38 E6        30.20F
CLEVELAND      FAIR      56  33  42 S3        30.17F
GREENWOOD      SUNNY     63  29  27 SW7       30.16F
GREENVILLE     SUNNY     57  33  40 VRB5      30.17F
GRENADA        FAIR      61  32  33 E5        30.17F
OLIVE BRANCH   PTSUNNY   61  27  27 E8        30.17F
OXFORD         FAIR      59  23  25 E3        30.19F
TUNICA         CLEAR     59  30  33 CALM      30.19F
$$

MSZ003>006-009-014>017-022>024-029>033-037>039-162100-
NORTHEAST MISSISSIPPI

CITY           SKY/WX    TMP DP  RH WIND       PRES   REMARKS
BELMONT        FAIR      60  29  30 N5        30.16F
COLUMBUS AFB   SUNNY     62  28  27 S7        30.17F
CORINTH        FAIR      61  23  23 S7        30.18F
GOLDN TRIANGLE SUNNY     61  30  31 SE9       30.20F
STARKVILLE     FAIR      61  32  33 CALM      30.17F
TUPELO         SUNNY     61  29  29 MISG      30.17F
$$

MSZ040-058-162100-
CENTRAL MISSISSIPPI

CITY           SKY/WX    TMP DP  RH WIND       PRES   REMARKS
JACKSON INTL   MOSUNNY   63  28  26 VRB5      30.16F
JACKSON HAWKNS SUNNY     62  26  25 MISG      30.16F
MERIDIAN KEY   SUNNY     64  29  26 VRB3      30.16F
MERIDIAN NAS   SUNNY     63  29  27 NE6       30.17F
RAYMOND        FAIR      63  57  82 S6        30.17F
VICKSBURG      SUNNY     59  32  36 VRB6      30.16F
$$

MSZ059>079-162100-
SOUTH MISSISSIPPI

CITY           SKY/WX    TMP DP  RH WIND       PRES   REMARKS
BROOKHAVEN     FAIR      61  34  36 CALM      30.17F
COLUMBIA       FAIR      63  30  29 MISG      30.15F
HATTIESBURG    SUNNY     63  30  28 VRB3      30.17F
MCCOMB         SUNNY     63  32  31 MISG      30.15F
NATCHEZ        SUNNY     63  34  34 E3        30.14F
PINE BELT      SUNNY     63  30  29 S3        30.17F
$$

MSZ080>082-162100-
COASTAL MISSISSIPPI

CITY           SKY/WX    TMP DP  RH WIND       PRES   REMARKS
BAY ST LOUIS   SUNNY     63  34  34 SW5       30.17F
BILOXI         SUNNY     59  39  48 S8        30.17F
PASCAGOULA     SUNNY     62  42  47 VRB6      30.17S
GULFPORT       SUNNY     60  39  45 S8        30.17F
$$



USA.gov is the U.S. government's official web portal to all federal, state and local government web resources and services.